LUCH-5B

Last updated on Thu Sep 10 2026 00:02:57 GMT+0000 (Coordinated Universal Time)

1 38977U 12061A 26252.22589869 -.00000153 00000+0 00000+0 0 9998 2 38977 10.6613 49.0222 0006144 164.5439 199.7408 1.00269776 50459
UTC large
Height (km)
Speed (km/s)
/
Latitude / Longitude
Inclination (degrees)
Orbital Period (minutes)
Azimuth
Elevation
Range (km)
Doppler Factor

Next 0 passes for location: London (51.5072 / 0.1276)

No passes found over London.
LUCH-5B